This demonstration page uses our WeatherBlox Daily Observations layout. Learn more.

Left ArrowRight Arrow

39.08367, -84.50855

Hourly Observations for January 26, 2015

Temp ( °F °C ) Dew Point ( °F °C ) Humidity (%) Winds ( mph kmh ) Pressure ( in mb ) Visibility ( mi km ) Precip ( " mm )
12:00 am 00:00 Cloudy with Light Snow 32 0 32 0 100 100 N 14 22 29.77 1008 2 3.21868 0 0
12:27 am 00:27 Cloudy with Light Snow 30 -1 30 -1 100 100 N 12 19 29.77 1008 1.75 2.816345 0 0
12:38 am 00:38 Cloudy with Light Snow 30 -1 30 -1 100 100 N 10 17 29.77 1008 2.5 4.02335 0 0
12:49 am 00:49 Cloudy with Light Snow 30 -1 30 -1 100 100 N 14 22 29.77 1008 4 6.43736 0.01 0.254
12:53 am 00:53 Cloudy with Light Snow 30 -1.1 30 -1.1 100 100 N 9 15 29.75 1007 5 8.0467 0.01 0.254
1:39 am 01:39 Cloudy with Light Snow 28 -2.2 26 -3.3 92 92 N 14 22 29.77 1008 2.5 4.02335 0 0.0254
1:53 am 01:53 Cloudy with Light Snow 28 -2.2 26 -3.3 92 92 N 12 19 29.77 1008 1.75 2.816345 0 0.0254
2:04 am 02:04 Cloudy with Light Snow 27 -3 27 -3 100 100 NNE 9 15 29.83 1010 1.5 2.41401 0 0
2:22 am 02:22 Cloudy with Light Snow 27 -3 25 -4 93 93 N 13 20 29.83 1010 2.5 4.02335 0 0
2:30 am 02:30 Cloudy with Light Snow 27 -2.8 24 -4.4 89 89 N 9 15 29.83 1010 3 4.82802 0.01 0.254
2:53 am 02:53 Cloudy with Light Snow 26 -3.3 22 -5.6 84 84 NNE 13 20 29.79 1009 4 6.43736 0.01 0.254
3:53 am 03:53 Cloudy with Light Snow 24 -4.4 22 -5.6 91 91 NNW 10 17 29.81 1010 4 6.43736 0 0.0254
4:53 am 04:53 Cloudy 23 -5 19 -7.2 85 85 N 16 26 29.83 1010 9 14.48406 0 0.0254
5:53 am 05:53 Cloudy 21 -6.1 17 -8.3 85 85 N 10 17 29.86 1011 10 16.0934 0 0
6:53 am 06:53 Cloudy 21 -6.1 16 -8.9 81 81 NNW 12 19 29.88 1012 10 16.0934 0 0
7:53 am 07:53 Cloudy 20 -6.7 15 -9.4 81 81 NNW 14 22 29.91 1013 10 16.0934 0 0
8:53 am 08:53 Cloudy 21 -6.1 16 -8.9 81 81 N 12 19 29.92 1013 10 16.0934 0 0
9:07 am 09:07 Cloudy 21 -6.1 16 -8.9 81 81 NNW 12 19 29.97 1015 10 16.0934 0 0
9:39 am 09:39 Cloudy 22 -5.6 16 -8.9 78 78 NNW 9 15 29.97 1015 10 16.0934 0 0
9:48 am 09:48 Cloudy 21 -6 16 -9 80 80 NNW 10 17 29.97 1015 10 16.0934 0 0
9:53 am 09:53 Cloudy 22 -5.6 16 -8.9 78 78 NW 8 13 29.95 1014 10 16.0934 0 0
10:53 am 10:53 Cloudy 22 -5.6 16 -8.9 78 78 N 13 20 29.98 1015 10 16.0934 0 0
11:53 am 11:53 Cloudy 23 -5 16 -8.9 74 74 WNW 9 15 29.96 1015 10 16.0934 0 0
12:53 pm 12:53 Mostly Cloudy 26 -3.3 18 -7.8 71 71 NW 12 19 29.94 1014 10 16.0934 0 0
1:00 pm 13:00 Partly Cloudy 27 -3 18 -8 69 69 NW 9 15 29.97 1015 10 16.0934 0 0
1:53 pm 13:53 Partly Cloudy 28 -2.2 20 -6.7 72 72 W 8 13 29.93 1014 10 16.0934 0 0
2:53 pm 14:53 Partly Cloudy 29 -1.7 18 -7.8 63 63 VRB 6 9 29.91 1013 10 16.0934 0 0
3:53 pm 15:53 Mostly Sunny 30 -1.1 18 -7.8 61 61 WNW 9 15 29.93 1013 10 16.0934 0 0
4:53 pm 16:53 Sunny 29 -1.7 18 -7.8 63 63 NNW 7 11 29.95 1014 10 16.0934 0 0
5:53 pm 17:53 Clear 27 -2.8 17 -8.3 66 66 N 9 15 29.97 1015 10 16.0934 0 0
6:53 pm 18:53 Clear 25 -3.9 16 -8.9 69 69 NNE 7 11 29.98 1015 10 16.0934 0 0
7:53 pm 19:53 Clear 22 -5.6 15 -9.4 75 75 ENE 5 7 29.99 1016 10 16.0934 0 0
8:53 pm 20:53 Partly Cloudy 21 -6.1 14 -10 74 74 ENE 5 7 30 1016 10 16.0934 0 0
9:53 pm 21:53 Mostly Cloudy 21 -6.1 15 -9.4 78 78 NE 6 9 30 1016 10 16.0934 0 0
10:53 pm 22:53 Cloudy 22 -5.6 14 -10 71 71 ENE 3 6 30 1016 10 16.0934 0 0
11:53 pm 23:53 Cloudy 22 -5.6 14 -10 71 71 NE 5 7 30 1016 10 16.0934 0 0

Powered by AerisWeather